{"data":{"norad_id":57517,"epoch":"2026-09-15T08:25:26.319648Z","epoch_age_seconds":459306,"freshness":"STALE","line1":"1 57517U 23114A   26258.35099907 -.00000007  00000+0  00000+0 0  9997","line2":"2 57517  65.3592  69.5827 0008593 288.6272  71.3040  2.13102618 24188","mean_motion":2.13102618,"eccentricity":0.0008593,"inclination_deg":65.3592,"raan_deg":69.5827,"arg_perigee_deg":288.6272,"mean_anomaly_deg":71.304,"bstar":0,"rev_number":2418,"period_min":675.73078806568,"perigee_km":19107.919108788,"apogee_km":19151.757114815,"semimajor_km":25507.975111801,"source":"CELESTRAK","updated_at":"2026-09-20T09:00:46.279967Z"}}